Location: Hilton Head Island
(32.2163°N, 80.7526°W)
Time: 11:23:22
(UTC-04:00)

S-56A Canister/Altair - Pass Details

Date: 17 February 2026
Orbit: 633 x 2484 km, 38.9° (Epoch: 10 March)

Event Time Altitude Azimuth Distance (km) Brightness Sun altitude
Exits shadow 06:17:08 12° 286° (WNW) 3,856 10.4 -10.5°
Maximum altitude 06:27:16 52° 215° (SW) 2,530 10.0 -8.3°
Drops below altitude 10° 06:41:08 10° 145° (SE) 5,105 12.5 -5.4°
Sets 06:45:24 0° 140° (SE) 6,145 13.0 -4.6°
